Home   Weather   Brockton   Past weeks

Flag for USA Past Weather in Brockton, Massachusetts, USA — Yesterday and Last 2 Weeks

Now
38 °F

Chilly.


Feels Like: 30 °F
Forecast: 15 / 40 °F
Wind: 12 mph from Southwest

Location: East Milton

Current Time: Jan 16, 2017 at 5:16:45 pm

Latest Report: Jan 16, 2017 at 3:54 pm


Visibility: N/A

Pressure: 30.30 "Hg

Humidity: 36%

Dew Point: 13 °F

Location of BrocktonLocation

Past Weather in Brockton — Graph

°F

Brockton Temperature Yesterday

Maximum temperature yesterday: 33 °F (at 12:54 pm)
Minimum temperature yesterday: 22 °F (at 6:54 am)
Average temperature yesterday: 27 °F

High & Low Weather Summary for the Past Weeks

 TemperatureHumidityPressure
High58 °F (Jan 12, 2:54 pm)100% (Jan 3, 9:54 am)30.71 "Hg (Jan 3, 9:54 am)
Low3 °F (Jan 9, 7:54 am)29% (Jan 13, 6:54 pm)29.36 "Hg (Jan 4, 1:54 am)
Average29 °F71%30.22 "Hg
* Reported Jan 1 3:54 pm — Jan 16 3:54 pm, Brockton, Weather by CustomWeather, © 2017

Note: Actual official high and low records may vary slightly from our data, if they occured in-between our weather recording intervals... More about our weather records

Advertising

Brockton Weather History for the Previous 24 Hours

Scroll right to see more
 ConditionsComfort  
Time TempWeatherWind HumidityBarometerVisibility
3:54 pm
Mon, Jan 16
38 °FChilly.12 mph36%30.30 "HgN/A
2:54 pm38 °FChilly.14 mph36%30.30 "HgN/A
1:54 pm38 °FChilly.10 mph36%30.32 "HgN/A
12:54 pm37 °FChilly.13 mph37%30.33 "HgN/A
11:54 am35 °FChilly.14 mph40%30.36 "HgN/A
10:54 am33 °FChilly.15 mph45%30.41 "HgN/A
9:54 am29 °FChilly.12 mph56%30.44 "HgN/A
8:54 am28 °FChilly.10 mph56%30.43 "HgN/A
7:54 am25 °FChilly.10 mph53%30.43 "HgN/A
6:54 am24 °FCold.8 mph52%30.44 "HgN/A
5:54 am24 °FCold.6 mph52%30.43 "HgN/A
4:54 am24 °FCold.3 mph52%30.44 "HgN/A
3:54 am24 °FCold.5 mph50%30.44 "HgN/A
2:54 am22 °FCold.8 mph57%30.44 "HgN/A
1:54 am22 °FCold.7 mph60%30.44 "HgN/A
12:54 am23 °FCold.7 mph55%30.42 "HgN/A
11:54 pm
Sun, Jan 15
24 °FCold.9 mph52%30.41 "HgN/A
10:54 pm25 °FChilly.8 mph53%30.42 "HgN/A
9:54 pm26 °FChilly.9 mph50%30.41 "HgN/A
8:54 pm26 °FChilly.9 mph50%30.40 "HgN/A
7:54 pm28 °FChilly.9 mph49%30.38 "HgN/A
6:54 pm28 °FChilly.9 mph49%30.37 "HgN/A
5:54 pm29 °FChilly.9 mph49%30.35 "HgN/A
Weather by CustomWeather, © 2017

See weather overviewHow to use our weather pages